FENGYUN 1C DEB, 30814

Orbit data source: Space-Track

FENGYUN 1C DEB, 30814 is space debris in SSO originally from a launch on Mon, 10 May 1999 UTC launched from the Taiyaun Space Center, China (TSC). Fengyun 1C debris stems from the Chinese weather satellite Fengyun-1C, which was intentionally destroyed by a Chinese anti-satellite missile in 2007. This event dramatically increased the amount of space debris, with thousands of trackable fragments posing hazards to satellites and human spaceflight. The Fengyun 1C debris cloud has become a focal point in discussions about space sustainability and the need for international regulations to prevent the creation of new debris.

Loading next visibility...
Identifier
30814, 1999-025AUY
Orbit
SSO
Country
Flag of CNCN / PRC
Related business
Manufacturer
Unknown
Mission
Spacecraft
Bus & Motor
Unknown
Mass
Unknown
Launch date (UTC)
1999-05-10 (27 years ago)
Launch vehicle
Unknown
Launch site
Taiyaun Space Center, China (TSC)
Object type
Payload
Rocket body
Debris
Shape & HBR
Unknown shape, 0.1 m
Radar Cross Section
Small (<0.1 m²)

Expand to show TLE details & history
Last TLE update: 15 hours ago

TLE from 15 hours ago
0 FENGYUN 1C DEB
1 30814U 99025AUY 26123.97238677  .00010868  00000-0  20373-2 0  9994
2 30814  99.0893 119.5634 0030737 154.5290 230.6588 14.64666912998217
Epoch: 2026-05-03T23:20Z
TLE epoch observation values (Epoch: 2026-05-03T23:20:14.216Z)
Latitude
24.61048°
Longitude
-96.54393°
Altitude
694.95 km
Speed
7.504 km/s
True Right ascension
07h 41m 32s
True Declination
24° 28' 46"
Sunlit
Object was in daylight at epoch
Visualization orbit readout
Latitude
Unknown
Longitude
Unknown
Altitude
Unknown
Speed
Unknown
Apparent Right ascension
Unknown
Apparent Declination
Unknown
Sunlit
N/A
Visualization observer readout
Local Sidereal Time
22:00:13
Azimuth
Unknown
Elevation
Unknown
Doppler factor
Unknown
Orbital elements
Apogee altitude
696.943 km
Perigee altitude
653.583 km
Semi-major axis
7,053.4 km
Eccentricity
0.00307
Inclination
99.0893°
RAAN
119.5634°
Arg. of periapsis
154.529°
True anomaly
230.38706°
Mean anomaly
230.6588°
Eccentric anomaly
230.52286°
Mean motion
3.66392 °/min
Orbital period
98.26 mins
BSTAR
0.0020373
Loading maneuver chart data...
Computing Atmospheric mass density...

Documentation

Showing up to 5 results
|